ZHONGXING-6C

Last updated on Thu Sep 10 2026 00:02:59 GMT+0000 (Coordinated Universal Time)

1 44067U 19012A 26252.39759994 -.00000356 00000+0 00000+0 0 9999 2 44067 0.0412 27.6440 0013743 35.4569 198.9460 1.00270447 27587
UTC large
Height (km)
Speed (km/s)
/
Latitude / Longitude
Inclination (degrees)
Orbital Period (minutes)
Azimuth
Elevation
Range (km)
Doppler Factor

Next 0 passes for location: London (51.5072 / 0.1276)

No passes found over London.
ZHONGXING-6C